Location: Recife
(8.0585°S, 34.8848°W)
Time: 09:35:14
(UTC-03:00)

Courier 1B Rocket - Pass Details

Date: 14 April 2026
Orbit: 920 x 1201 km, 28.2° (Epoch: 13 May)

Event Time Altitude Azimuth Distance (km) Brightness Sun altitude
Rises 05:45:17 0° 285° (WNW) 3,605 7.4 4.9°
Reaches altitude 10° 05:47:56 10° 280° (W) 2,691 6.8 5.5°
Maximum altitude 05:54:13 50° 206° (SSW) 1,264 5.5 7.1°
Drops below altitude 10° 06:00:59 10° 131° (SE) 2,887 8.1 8.7°
Sets 06:03:56 0° 126° (SE) 3,890 8.8 9.4°
